Back to catalog

NOAA 7

AliveWeatherSSO
NORAD 12553·PAYLOAD·🇺🇸 United States

Launched Jun 23, 1981 from Vandenberg Space Force Base

Loading…

Next Passes (next 24 hours)

TLE

FreshSource: Space-Track

Epoch: Sep 14, 2026, 02:07 UTC

1 12553U 81059A   26257.08821448  .00000029  00000-0  35581-4 0  9993
2 12553  98.7874 323.3369 0011707  18.9561 341.2048 14.17802087337346

Track NOAA 7 in real time with AllMySat

Download on the App Store